[[{"header":{"parameterUnit":"m.s-1","parameterCategory":1,"la1":30.2991,"la2":30.254,"lo1":-89.0895,"lo2":-89.0444,"dy":0.0017,"dx":0.0017,"nx":28,"ny":28,"refTime":"2024-06-18T03:00:00:Z","depth":0,"parameterNumber":2,"parameterNumberName":"U-component_of_WINDS"},"data":[0,0,0,0,0,0,0,0,0,0,0,0,0,0,0,0,0,0,0,0,0,0,0,0,0,0,0,0,0,0,0,0,0,0,0,0,0,0,0,0,0,0,0,0,0,0,0,0,0,0,0,0,0,0,0,0,0,0,-7.4506,-7.4507,0,-7.4526,-7.4526,-7.4526,-7.4304,-7.4298,-7.4292,-7.4286,-7.4308,-7.4314,-7.432,0,0,0,0,0,0,0,0,0,0,0,0,0,-7.4277,-7.4283,-7.4506,-7.4507,-7.4507,-7.4526,-7.4526,-7.4526,-7.4305,-7.4297,-7.429,-7.4283,-7.4306,-7.4313,-7.432,0,0,0,0,0,0,0,0,0,0,0,0,0,-7.4345,-7.4284,-7.4506,-7.4398,-7.4389,-7.4526,-7.4526,-7.4526,-7.4306,-7.4297,-7.4288,-7.4279,-7.4303,-7.4312,-7.4321,-7.4563,0,0,-7.435,-7.4354,0,0,0,0,0,0,0,0,-7.4341,-7.4354,-7.4414,-7.4406,-7.4396,-7.4403,-7.4453,-7.4539,-7.4309,-7.4338,-7.4286,-7.4275,-7.4347,-7.4352,-7.4376,-7.4564,-7.4565,-7.4351,-7.4357,-7.4361,-7.4363,0,0,0,0,0,0,0,-7.4337,-7.4352,-7.4514,-7.4415,-7.4404,-7.4349,-7.4349,-7.4468,-7.4394,-7.4335,-7.4318,-7.4324,-7.434,-7.4367,-7.4375,-7.4565,-7.4351,-7.4359,-7.4365,-7.4369,-7.4949,-7.4959,0,0,0,0,0,0,-7.4347,-7.4349,-7.4513,-7.4514,-7.4345,-7.4361,-7.436,-7.441,-7.4392,-7.438,-7.4332,-7.4313,-7.4356,-7.4364,-7.4375,-7.4653,-7.4361,-7.437,-7.4375,-7.494,-7.4952,-7.4962,0,0,0,0,0,0,-7.4343,-7.4364,-7.4512,-7.4427,-7.4442,-7.4374,-7.4432,-7.4415,-7.4442,-7.4389,-7.4375,-7.4373,-7.4349,-7.4361,-7.4517,-7.4651,-7.4374,-7.4382,-7.4928,-7.4943,-7.4957,-7.5216,0,0,0,0,0,0,-7.4337,-7.4363,-7.4455,-7.4431,-7.4448,-7.4655,-7.444,-7.4422,-7.4459,-7.4435,-7.4424,-7.4414,-7.4343,-7.4504,-7.4526,-7.4659,-7.439,-7.4916,-7.4935,-7.4952,-7.5195,-7.5237,-7.5274,0,0,0,0,0,-7.433,-7.4528,-7.446,-7.4481,-7.456,-7.4663,-7.4673,-7.4586,-7.4471,-7.4561,-7.4527,-7.4414,-7.4634,-7.4522,-7.4545,-7.4683,-7.4907,-7.493,-7.4951,-7.5177,-7.5229,-7.5273,0,0,0,0,0,0,-7.4569,-7.4523,-7.4447,-7.4644,-7.4659,-7.4626,-7.4737,-7.4644,-7.4693,-7.4669,-7.456,-7.456,-7.4733,-7.4723,-7.46,-7.4914,-7.475,-7.4778,-7.4914,-7.4963,-7.5002,-7.4999,-7.4398,0,0,0,0,0,-7.4645,-7.4733,-7.4687,-7.4865,-7.4876,-7.4807,-7.4848,-7.478,-7.4792,-7.4797,-7.4774,-7.4791,-7.4862,-7.4912,-7.4976,-7.5193,-7.5186,-7.5299,-7.5339,-7.5371,-7.5396,-7.5508,-7.5556,-7.5034,-7.5034,-7.5034,0,0,-7.4802,-7.4787,-7.485,-7.4912,-7.4916,-7.5009,-7.4813,-7.492,-7.4987,-7.4814,-7.4958,-7.4943,-7.4953,-7.514,-7.5221,-7.5137,-7.5539,-7.5399,-7.5426,-7.5433,-7.5535,-7.5585,-7.5629,-7.5049,-7.5047,-7.5044,0,0,-7.5135,-7.5134,-7.528,-7.5288,-7.5296,-7.5248,-7.5284,-7.5264,-7.5247,-7.539,-7.5261,-7.534,-7.5467,-7.5479,-7.5502,-7.584,-7.5737,-7.5864,-7.6069,-7.618,-7.6221,-7.6256,-7.6375,-7.6419,-7.5889,-7.589,-7.589,0,-7.5329,-7.5464,-7.5367,-7.5482,-7.5513,-7.5359,-7.5506,-7.5518,-7.5548,-7.5573,-7.5479,-7.5633,-7.563,-7.5816,-7.5898,-7.5923,-7.5959,-7.5863,-7.6223,-7.6257,-7.629,-7.6401,-7.6446,-7.5905,-7.5903,-7.5901,-7.59,0,-7.5701,-7.5796,-7.5913,-7.5944,-7.5988,-7.6119,-7.6042,-7.6099,-7.6027,-7.5989,-7.6137,-7.6127,-7.6185,-7.6225,-7.6157,-7.6402,-7.6349,-7.6241,-7.6073,-7.6356,-7.6459,-7.6501,-7.5926,-7.5921,-7.5916,-7.5913,0,0,-7.6185,-7.6159,-7.6204,-7.6215,-7.6212,-7.6284,-7.6408,-7.6463,-7.6513,-7.6539,-7.6639,-7.675,-7.6649,-7.6675,-7.6607,-7.6704,-7.6969,-7.6583,-7.6582,-7.6653,-7.7236,-7.7316,-7.7367,-7.6902,-7.691,-7.6916,-7.7234,0,-7.6507,-7.6715,-7.6631,-7.6847,-7.6932,-7.6788,-7.6895,-7.6905,-7.6873,-7.6941,-7.6906,-7.6985,-7.6848,-7.6862,-7.6952,-7.6918,-7.7084,-7.6894,-7.6993,-7.6998,-7.6992,-7.7421,-7.7505,-7.7806,-7.7274,-7.7281,-7.7286,0,-7.691,-7.695,-7.7174,-7.7154,-7.7187,-7.7285,-7.7328,-7.7396,-7.7404,-7.7374,-7.7404,-7.7314,-7.7433,-7.7268,-7.743,-7.7302,-7.7338,-7.7328,-7.7337,-7.7341,-7.7157,-7.7434,-7.79,-7.7945,-7.7349,-7.7344,-7.7339,0,-7.7237,-7.7348,-7.7495,-7.7509,-7.7491,-7.7563,-7.7559,-7.7558,-7.7596,-7.7635,-7.7658,-7.7712,-7.774,-7.7783,-7.771,-7.7597,-7.7882,-7.7711,-7.7859,-7.7861,-7.7924,-7.792,-7.84,-7.7952,-7.7951,-7.7951,-7.795,0,-7.7604,-7.7746,-7.7641,-7.7732,-7.7886,-7.779,-7.7945,-7.7925,-7.7926,-7.8009,-7.7889,-7.797,-7.7869,-7.7941,-7.7885,-7.8026,-7.8041,-7.8019,-7.8002,-7.8029,-7.8031,-7.8049,-7.8025,-7.7962,-7.796,-7.7957,-7.7955,0,-7.7994,-7.7931,-7.8081,-7.8051,-7.8047,-7.8162,-7.8136,-7.8218,-7.8178,-7.8285,-7.8305,-7.8242,-7.832,-7.8252,-7.8328,-7.8289,-7.8477,-7.8432,-7.8474,-7.846,-7.8611,-7.8597,-7.9117,-7.9179,-7.8694,-7.8699,-7.8703,0,-7.8231,-7.8337,-7.8318,-7.8365,-7.8368,-7.8446,-7.8483,-7.8393,-7.8437,-7.8454,-7.8535,-7.8602,-7.8651,-7.8783,-7.8744,-7.8801,-7.8754,-7.8932,-7.8761,-7.8784,-7.8753,-7.8747,-7.8756,-7.8966,-7.8972,-7.8976,-7.898,0,-7.8658,-7.8621,-7.868,-7.8729,-7.8777,-7.8811,-7.8835,-7.8881,-7.8787,-7.8844,-7.8921,-7.896,-7.9036,-7.9104,-7.9148,-7.9144,-7.9047,-7.9035,-7.9071,-7.9098,-7.9117,-7.9106,-7.8566,-7.9022,-7.9018,-7.9015,-7.9013,-7.9011,-7.8977,-7.9063,-7.9062,-7.9132,-7.9141,-7.9166,-7.9241,-7.921,-7.9273,-7.9326,-7.927,-7.9364,-7.9368,-7.9417,-7.9425,-7.9497,-7.9422,-7.9476,-7.949,-7.9504,-7.9524,-7.9108,-7.9505,-7.9504,-7.9503,-7.9501,-7.9501,0,-7.9395,-7.9387,-7.9452,-7.9489,-7.9544,-7.9448,-7.947,-7.9522,-7.9606,-7.9618,-7.9668,-7.9757,-7.9822,-7.9789,-7.9845,-7.9909,-7.9866,-7.9927,-7.992,-7.992,-7.9589,-7.955,-7.9961,-7.9961,-7.9961,-7.9961,-7.9961,-7.996,-7.9618,-7.9758,-7.9721,-7.9864,-7.9854,-7.9945,-7.9965,-7.9988,-7.9996,-8.0101,-8.0154,-8.0131,-8.0125,-8.018,-8.0235,-8.0224,-8.0249,-8.0326,-8.0299,-7.9989,-7.9944,-7.99,-7.9863,-8.0333,-8.0333,-8.0623,-8.0625,-8.0627]},{"header":{"parameterUnit":"m.s-1","parameterCategory":1,"la1":30.2991,"la2":30.254,"lo1":-89.0895,"lo2":-89.0444,"dy":0.0017,"dx":0.0017,"nx":28,"ny":28,"refTime":"2024-06-18T03:00:00:Z","depth":0,"parameterNumber":3,"parameterNumberName":"V-component_of_WINDS"},"data":[0,0,0,0,0,0,0,0,0,0,0,0,0,0,0,0,0,0,0,0,0,0,0,0,0,0,0,0,0,0,0,0,0,0,0,0,0,0,0,0,0,0,0,0,0,0,0,0,0,0,0,0,0,0,0,0,0,0,0.1822,0.1823,0,0.1897,0.1898,0.1899,0.1824,0.1821,0.1819,0.1816,0.1896,0.1901,0.1906,0,0,0,0,0,0,0,0,0,0,0,0,0,0.1618,0.1623,0.1822,0.1823,0.1824,0.1897,0.1898,0.1899,0.1825,0.1821,0.1818,0.1814,0.1895,0.1901,0.1906,0,0,0,0,0,0,0,0,0,0,0,0,0,0.1702,0.1624,0.1822,0.1795,0.1794,0.1897,0.1898,0.19,0.1826,0.1821,0.1817,0.1813,0.1893,0.19,0.1907,0.2041,0,0,0.193,0.1933,0,0,0,0,0,0,0,0,0.1697,0.1709,0.1798,0.1797,0.1796,0.1847,0.1856,0.1947,0.1827,0.1814,0.1816,0.1811,0.1884,0.1892,0.1915,0.2045,0.2048,0.193,0.1935,0.1938,0.194,0,0,0,0,0,0,0,0.1691,0.1706,0.1852,0.18,0.1798,0.1782,0.1788,0.1873,0.1873,0.1815,0.1809,0.1819,0.1882,0.1909,0.1917,0.205,0.193,0.1937,0.1941,0.1944,0.2297,0.2302,0,0,0,0,0,0,0.1688,0.1701,0.1849,0.1854,0.1734,0.1789,0.1797,0.1835,0.1872,0.1873,0.1823,0.1815,0.1898,0.1908,0.1919,0.2082,0.1938,0.1945,0.1949,0.2292,0.2298,0.2303,0,0,0,0,0,0,0.1684,0.1702,0.1846,0.1776,0.1793,0.1797,0.1841,0.1839,0.1865,0.1878,0.1878,0.185,0.1895,0.1909,0.2012,0.2084,0.1948,0.1955,0.2286,0.2294,0.2301,0.2406,0,0,0,0,0,0,0.1678,0.1701,0.1751,0.1778,0.1797,0.1937,0.1845,0.1844,0.1878,0.1869,0.1903,0.1904,0.1893,0.2002,0.202,0.2091,0.196,0.228,0.2289,0.2298,0.2397,0.2416,0.2433,0,0,0,0,0,0.1671,0.1777,0.1753,0.1772,0.1859,0.1941,0.1952,0.1936,0.1884,0.1935,0.1943,0.1903,0.2072,0.2013,0.2032,0.2107,0.2275,0.2287,0.2298,0.2388,0.2413,0.2433,0,0,0,0,0,0,0.1759,0.178,0.1754,0.1871,0.1905,0.1928,0.1992,0.1961,0.2011,0.2001,0.1979,0.1988,0.2098,0.2112,0.2045,0.2241,0.2165,0.2181,0.2228,0.2251,0.2269,0.2265,0.1967,0,0,0,0,0,0.1791,0.1854,0.187,0.1972,0.199,0.1989,0.2023,0.2008,0.2042,0.2056,0.2072,0.2108,0.2169,0.221,0.2267,0.2397,0.2406,0.2459,0.2477,0.2492,0.2507,0.2581,0.2606,0.234,0.234,0.234,0,0,0.186,0.1879,0.1921,0.199,0.2014,0.2083,0.2001,0.2075,0.2127,0.2068,0.2167,0.218,0.2219,0.2337,0.239,0.2353,0.2582,0.2506,0.2518,0.2525,0.2595,0.262,0.2643,0.2348,0.2346,0.2345,0,0,0.2021,0.204,0.2129,0.2155,0.2193,0.2191,0.2213,0.2241,0.2248,0.2346,0.2305,0.2365,0.2471,0.2501,0.253,0.2705,0.2672,0.2724,0.2822,0.2894,0.2915,0.2934,0.3,0.3024,0.2738,0.2738,0.2738,0,0.2102,0.2201,0.2179,0.2258,0.2292,0.224,0.2333,0.2359,0.2414,0.2439,0.2396,0.2529,0.2551,0.2678,0.2721,0.2745,0.2771,0.2721,0.2914,0.2932,0.2949,0.3012,0.3037,0.2745,0.2744,0.2743,0.2743,0,0.2301,0.2371,0.2439,0.2493,0.2534,0.2619,0.2612,0.2656,0.2637,0.2641,0.2744,0.2769,0.2832,0.286,0.2842,0.2985,0.2962,0.2916,0.2841,0.2981,0.304,0.3064,0.2754,0.2752,0.275,0.2748,0,0,0.252,0.2562,0.2587,0.2613,0.2651,0.2706,0.279,0.285,0.2891,0.293,0.3002,0.3093,0.3053,0.3086,0.3071,0.3134,0.3276,0.3082,0.3082,0.312,0.344,0.3477,0.3505,0.3252,0.3257,0.326,0.3438,0,0.2684,0.2829,0.2813,0.2952,0.3019,0.2972,0.3045,0.3078,0.3084,0.3143,0.3149,0.3216,0.3155,0.3175,0.3235,0.3246,0.334,0.3232,0.3323,0.3326,0.3318,0.3535,0.3573,0.3739,0.3461,0.3464,0.3467,0,0.2896,0.2944,0.309,0.3121,0.3149,0.3215,0.3271,0.3326,0.3364,0.3364,0.3402,0.3377,0.3464,0.3384,0.3505,0.3432,0.3468,0.3479,0.3485,0.3496,0.3408,0.3555,0.3792,0.3818,0.3502,0.35,0.3497,0,0.3046,0.3147,0.3248,0.3271,0.3309,0.3357,0.3375,0.3408,0.3447,0.3496,0.3521,0.358,0.3613,0.366,0.3653,0.3595,0.3778,0.3697,0.3783,0.3784,0.3827,0.3825,0.4077,0.3844,0.3843,0.3843,0.3842,0,0.3234,0.3326,0.3317,0.3379,0.3482,0.3463,0.3566,0.3578,0.3608,0.3674,0.3636,0.3699,0.3684,0.3747,0.3741,0.3845,0.3859,0.3864,0.3862,0.387,0.387,0.3895,0.3885,0.3849,0.3848,0.3847,0.3845,0,0.342,0.3417,0.3525,0.3552,0.3561,0.3636,0.3661,0.3721,0.3724,0.3808,0.3827,0.3832,0.3905,0.3901,0.3983,0.398,0.4109,0.4091,0.4097,0.4094,0.4183,0.4176,0.4463,0.4501,0.424,0.4242,0.4244,0,0.3542,0.3612,0.3648,0.3689,0.3711,0.3777,0.3817,0.3801,0.3844,0.3894,0.3949,0.4018,0.4073,0.4192,0.4204,0.4268,0.4254,0.435,0.4263,0.427,0.4261,0.4258,0.4267,0.4368,0.4371,0.4374,0.4376,0,0.3761,0.3756,0.3814,0.3873,0.3922,0.3967,0.4009,0.4045,0.4034,0.4085,0.4159,0.4201,0.4286,0.4357,0.4418,0.4438,0.4407,0.4402,0.4427,0.4437,0.4439,0.4443,0.4147,0.4397,0.4395,0.4393,0.4392,0.4391,0.3921,0.3983,0.4018,0.4085,0.4115,0.4155,0.4215,0.4225,0.4286,0.4354,0.4341,0.4425,0.4463,0.4542,0.4568,0.4635,0.4601,0.4635,0.4644,0.4654,0.4666,0.4425,0.4645,0.4645,0.4644,0.4644,0.4643,0,0.4141,0.4162,0.4224,0.4284,0.4337,0.4301,0.4346,0.4394,0.4468,0.4506,0.4561,0.4648,0.4717,0.4735,0.4801,0.4852,0.484,0.487,0.4868,0.4875,0.4691,0.4665,0.4879,0.4879,0.4879,0.4879,0.4879,0.4879,0.4262,0.4366,0.4366,0.4485,0.4505,0.4587,0.4616,0.4655,0.4685,0.4784,0.4841,0.4851,0.4882,0.4951,0.5014,0.5017,0.5045,0.5083,0.5082,0.491,0.4887,0.4864,0.484,0.5088,0.5088,0.526,0.5262,0.5263]}]]